{"data":{"norad_id":60316,"epoch":"2026-05-25T03:49:15.850272Z","epoch_age_seconds":65295,"freshness":"FRESH","line1":"1 60316U 24133R   26145.15921123  .00000626  00000+0  33268-4 0  9990","line2":"2 60316  53.1600 301.4789 0001285  95.3248 264.7899 15.30189572103440","mean_motion":15.30189572,"eccentricity":0.0001285,"inclination_deg":53.16,"raan_deg":301.4789,"arg_perigee_deg":95.3248,"mean_anomaly_deg":264.7899,"bstar":3.3268e-5,"rev_number":10344,"period_min":94.105987019496,"perigee_km":474.36554598255,"apogee_km":476.12686546642,"semimajor_km":6853.3832057245,"source":"CELESTRAK","updated_at":"2026-05-25T13:38:19.231065Z"}}